[[{"header":{"parameterUnit":"m.s-1","parameterCategory":1,"la1":30.2991,"la2":30.254,"lo1":-89.0895,"lo2":-89.0444,"dy":0.0017,"dx":0.0017,"nx":28,"ny":28,"refTime":"2024-04-07T21:00:00:Z","depth":0,"parameterNumber":2,"parameterNumberName":"U-component_of_WINDS"},"data":[0,0,0,0,0,0,0,0,0,0,0,0,0,0,0,0,0,0,0,0,0,0,0,0,0,0,0,0,0,0,0,0,0,0,0,0,0,0,0,0,0,0,0,0,0,0,0,0,0,0,0,0,0,0,0,0,0,0,-5.3496,-5.3497,0,-5.361,-5.3611,-5.3613,-5.3633,-5.3632,-5.3632,-5.3631,-5.3745,-5.3749,-5.3753,0,0,0,0,0,0,0,0,0,0,0,0,0,-5.3293,-5.3297,-5.3495,-5.3497,-5.3498,-5.361,-5.3611,-5.3613,-5.3634,-5.3632,-5.3631,-5.363,-5.3744,-5.3749,-5.3753,0,0,0,0,0,0,0,0,0,0,0,0,0,-5.3392,-5.3298,-5.3495,-5.3522,-5.3526,-5.361,-5.3612,-5.3613,-5.3634,-5.3632,-5.3631,-5.363,-5.3743,-5.3748,-5.3754,-5.3818,0,0,-5.3772,-5.3775,0,0,0,0,0,0,0,0,-5.3386,-5.3399,-5.3517,-5.352,-5.3525,-5.3606,-5.3582,-5.3682,-5.3634,-5.3593,-5.3631,-5.3629,-5.37,-5.3709,-5.3734,-5.3824,-5.3829,-5.3773,-5.3776,-5.3779,-5.378,0,0,0,0,0,0,0,-5.3379,-5.3394,-5.3541,-5.3518,-5.3523,-5.3528,-5.3541,-5.3601,-5.3653,-5.3596,-5.3598,-5.3611,-5.3702,-5.3728,-5.3737,-5.383,-5.3772,-5.3778,-5.3781,-5.3784,-5.398,-5.3982,0,0,0,0,0,0,-5.3368,-5.3389,-5.3537,-5.3544,-5.3451,-5.3533,-5.3547,-5.3581,-5.3652,-5.3662,-5.3612,-5.3612,-5.3719,-5.373,-5.3741,-5.382,-5.3779,-5.3784,-5.3788,-5.3978,-5.398,-5.3982,0,0,0,0,0,0,-5.3364,-5.3381,-5.3532,-5.3467,-5.3487,-5.3538,-5.3576,-5.3584,-5.361,-5.3665,-5.3674,-5.363,-5.3718,-5.3732,-5.3799,-5.3825,-5.3787,-5.3792,-5.3976,-5.3979,-5.3981,-5.398,0,0,0,0,0,0,-5.3358,-5.3379,-5.3404,-5.3467,-5.349,-5.3589,-5.3578,-5.3588,-5.3621,-5.3621,-5.3683,-5.3692,-5.3718,-5.379,-5.3805,-5.3832,-5.3797,-5.3974,-5.3978,-5.3981,-5.3978,-5.3982,-5.3986,0,0,0,0,0,-5.335,-5.3399,-5.3405,-5.3423,-5.3522,-5.3591,-5.3603,-5.3633,-5.3623,-5.3648,-5.3683,-5.369,-5.382,-5.3797,-5.3814,-5.3843,-5.3973,-5.3977,-5.398,-5.3976,-5.3981,-5.3986,0,0,0,0,0,0,-5.3335,-5.3407,-5.3415,-5.3486,-5.3532,-5.3594,-5.3626,-5.3638,-5.3687,-5.3685,-5.372,-5.3733,-5.3798,-5.3828,-5.3801,-5.391,-5.3896,-5.3903,-5.3887,-5.3892,-5.3896,-5.3886,-5.3802,0,0,0,0,0,-5.3341,-5.339,-5.3451,-5.3507,-5.353,-5.3574,-5.3605,-5.3624,-5.3673,-5.3693,-5.3733,-5.3779,-5.3831,-5.3864,-5.3914,-5.3984,-5.3997,-5.4012,-5.4016,-5.4019,-5.4024,-5.4063,-5.407,-5.3995,-5.3995,-5.3995,0,0,-5.3351,-5.3396,-5.3425,-5.3505,-5.3543,-5.3593,-5.359,-5.3644,-5.3681,-5.3701,-5.3766,-5.3797,-5.3852,-5.392,-5.3953,-5.3947,-5.4049,-5.4024,-5.4026,-5.4029,-5.4068,-5.4075,-5.4081,-5.3997,-5.3997,-5.3996,0,0,-5.3395,-5.3435,-5.3486,-5.3525,-5.3584,-5.3614,-5.3626,-5.3687,-5.3709,-5.3776,-5.3792,-5.3837,-5.3925,-5.3964,-5.3995,-5.4057,-5.4065,-5.4073,-5.4092,-5.4129,-5.4135,-5.4141,-5.4162,-5.4169,-5.4078,-5.4078,-5.4078,0,-5.34,-5.3477,-5.3511,-5.3564,-5.3598,-5.3621,-5.3672,-5.3708,-5.378,-5.3803,-5.3797,-5.3909,-5.3947,-5.4025,-5.404,-5.4065,-5.408,-5.4064,-5.4132,-5.4138,-5.4143,-5.4163,-5.4171,-5.4079,-5.4079,-5.4079,-5.4079,0,-5.3479,-5.3533,-5.3567,-5.3637,-5.3676,-5.3728,-5.377,-5.3805,-5.3822,-5.3853,-5.3921,-5.3968,-5.4029,-5.405,-5.4066,-5.413,-5.4125,-5.4125,-5.4111,-5.415,-5.417,-5.4178,-5.4079,-5.4079,-5.4079,-5.4079,0,0,-5.3513,-5.3604,-5.3615,-5.3648,-5.3715,-5.3757,-5.3811,-5.3872,-5.3901,-5.3951,-5.3996,-5.4072,-5.4073,-5.4108,-5.413,-5.4163,-5.4209,-5.416,-5.4161,-5.4165,-5.4281,-5.4278,-5.4287,-5.4216,-5.4218,-5.4219,-5.4276,0,-5.3564,-5.366,-5.3694,-5.3773,-5.3823,-5.3847,-5.3894,-5.394,-5.3971,-5.4018,-5.4052,-5.4105,-5.4103,-5.4125,-5.4159,-5.4196,-5.4232,-5.4193,-5.4257,-5.4259,-5.4239,-5.4297,-5.4294,-5.4345,-5.4284,-5.4285,-5.4286,0,-5.3634,-5.3686,-5.3771,-5.3834,-5.3856,-5.3897,-5.3956,-5.4001,-5.4055,-5.4075,-5.4116,-5.4136,-5.4194,-5.418,-5.4259,-5.4231,-5.4261,-5.4283,-5.4286,-5.429,-5.4272,-5.4301,-5.4363,-5.4369,-5.4299,-5.4298,-5.4297,0,-5.3648,-5.374,-5.3802,-5.3829,-5.3905,-5.3933,-5.3966,-5.4019,-5.4054,-5.4106,-5.4128,-5.4186,-5.4217,-5.4261,-5.4297,-5.4283,-5.4372,-5.4361,-5.439,-5.4389,-5.4404,-5.4402,-5.4469,-5.4428,-5.4428,-5.4427,-5.4427,0,-5.3699,-5.3749,-5.3809,-5.3847,-5.3905,-5.3944,-5.4,-5.4034,-5.4082,-5.4127,-5.4152,-5.4193,-5.4239,-5.4287,-5.4315,-5.4376,-5.439,-5.4408,-5.4414,-5.4404,-5.4401,-5.4421,-5.4417,-5.443,-5.4429,-5.4429,-5.4428,0,-5.3722,-5.3765,-5.3834,-5.3901,-5.3919,-5.3958,-5.4015,-5.4053,-5.4087,-5.4144,-5.416,-5.4212,-5.427,-5.4311,-5.4385,-5.4404,-5.4469,-5.4476,-5.445,-5.4453,-5.4478,-5.4475,-5.4557,-5.457,-5.4523,-5.4523,-5.4523,0,-5.375,-5.379,-5.3862,-5.3894,-5.3927,-5.3979,-5.4015,-5.4056,-5.4093,-5.4159,-5.4189,-5.4249,-5.4298,-5.439,-5.4434,-5.4492,-5.4499,-5.4525,-5.4507,-5.4496,-5.4497,-5.4493,-5.4497,-5.4526,-5.4526,-5.4526,-5.4526,0,-5.3795,-5.3815,-5.3866,-5.3926,-5.3969,-5.4017,-5.4066,-5.4091,-5.4141,-5.4181,-5.4241,-5.428,-5.4357,-5.4416,-5.4478,-5.4511,-5.4527,-5.4532,-5.4541,-5.453,-5.4512,-5.452,-5.4455,-5.4529,-5.4529,-5.4529,-5.4528,-5.4528,-5.3821,-5.3857,-5.3913,-5.397,-5.4012,-5.4057,-5.4096,-5.4136,-5.4187,-5.4253,-5.4275,-5.4337,-5.4392,-5.4477,-5.4512,-5.4561,-5.4559,-5.4573,-5.4576,-5.4578,-5.4577,-5.4507,-5.4573,-5.4573,-5.4573,-5.4573,-5.4573,0,-5.3865,-5.3904,-5.3956,-5.4024,-5.4069,-5.4082,-5.4137,-5.4173,-5.4228,-5.4278,-5.4328,-5.4397,-5.4455,-5.4506,-5.4566,-5.4596,-5.4604,-5.461,-5.4606,-5.4614,-5.4576,-5.4561,-5.4602,-5.4602,-5.4602,-5.4602,-5.4602,-5.4602,-5.3894,-5.3956,-5.3982,-5.4066,-5.4104,-5.4165,-5.4196,-5.4238,-5.4278,-5.4355,-5.4403,-5.4437,-5.4487,-5.4552,-5.4606,-5.4619,-5.4639,-5.4643,-5.4657,-5.462,-5.4616,-5.4613,-5.4599,-5.4647,-5.4648,-5.4691,-5.4692,-5.4692]},{"header":{"parameterUnit":"m.s-1","parameterCategory":1,"la1":30.2991,"la2":30.254,"lo1":-89.0895,"lo2":-89.0444,"dy":0.0017,"dx":0.0017,"nx":28,"ny":28,"refTime":"2024-04-07T21:00:00:Z","depth":0,"parameterNumber":3,"parameterNumberName":"V-component_of_WINDS"},"data":[0,0,0,0,0,0,0,0,0,0,0,0,0,0,0,0,0,0,0,0,0,0,0,0,0,0,0,0,0,0,0,0,0,0,0,0,0,0,0,0,0,0,0,0,0,0,0,0,0,0,0,0,0,0,0,0,0,0,3.2683,3.2683,0,3.2703,3.2704,3.2704,3.2762,3.2763,3.2765,3.2766,3.2783,3.2782,3.2781,0,0,0,0,0,0,0,0,0,0,0,0,0,3.2691,3.2691,3.2683,3.2683,3.2683,3.2703,3.2704,3.2704,3.2762,3.2763,3.2765,3.2766,3.2783,3.2782,3.2781,0,0,0,0,0,0,0,0,0,0,0,0,0,3.2697,3.2691,3.2682,3.2715,3.2718,3.2703,3.2704,3.2704,3.2761,3.2763,3.2765,3.2767,3.2783,3.2782,3.2781,3.2736,0,0,3.2778,3.2777,0,0,0,0,0,0,0,0,3.2697,3.2697,3.271,3.2712,3.2716,3.2732,3.2713,3.2715,3.2761,3.2745,3.2766,3.2768,3.2764,3.2765,3.2764,3.2737,3.2738,3.2778,3.2777,3.2777,3.2776,0,0,0,0,0,0,0,3.2696,3.2696,3.2691,3.271,3.2713,3.2727,3.273,3.2714,3.2743,3.2746,3.2751,3.2752,3.2766,3.2765,3.2765,3.2738,3.2778,3.2777,3.2776,3.2776,3.2677,3.2676,0,0,0,0,0,0,3.2692,3.2695,3.269,3.2691,3.2711,3.2726,3.2729,3.2725,3.2744,3.2748,3.2751,3.2755,3.2766,3.2766,3.2766,3.2717,3.2777,3.2776,3.2775,3.2679,3.2677,3.2675,0,0,0,0,0,0,3.2692,3.2691,3.2689,3.2695,3.2696,3.2723,3.2718,3.2724,3.2724,3.2747,3.2752,3.2745,3.2768,3.2768,3.2744,3.2718,3.2775,3.2774,3.2682,3.2679,3.2676,3.2616,0,0,0,0,0,0,3.2692,3.269,3.2674,3.2694,3.2695,3.2667,3.2717,3.2723,3.2722,3.2728,3.2743,3.2747,3.2769,3.2745,3.2743,3.2717,3.2773,3.2684,3.268,3.2677,3.262,3.2611,3.2603,0,0,0,0,0,3.2692,3.2654,3.2673,3.2672,3.2675,3.2666,3.2666,3.2694,3.2719,3.2703,3.2719,3.2746,3.2721,3.2743,3.274,3.2714,3.2686,3.2681,3.2677,3.2624,3.2613,3.2604,0,0,0,0,0,0,3.2628,3.2658,3.2678,3.2646,3.2653,3.2676,3.2656,3.2681,3.2679,3.2685,3.2718,3.2721,3.2693,3.2701,3.2724,3.2673,3.2708,3.2703,3.2669,3.2658,3.265,3.2649,3.2772,0,0,0,0,0,3.2611,3.2602,3.2627,3.2597,3.26,3.2627,3.2624,3.2645,3.2653,3.2656,3.2669,3.2675,3.2669,3.2664,3.2659,3.2622,3.2627,3.2603,3.2594,3.2587,3.2582,3.2565,3.2556,3.266,3.2661,3.2661,0,0,3.2574,3.2589,3.2581,3.2585,3.2593,3.2582,3.2629,3.2615,3.2608,3.2653,3.2633,3.2643,3.2652,3.2622,3.2609,3.2628,3.2555,3.2581,3.2576,3.2575,3.256,3.255,3.2541,3.2658,3.2658,3.2659,0,0,3.2503,3.2513,3.249,3.2498,3.251,3.2529,3.2523,3.2542,3.2552,3.2532,3.2567,3.2558,3.2545,3.2551,3.2552,3.2486,3.2512,3.2483,3.2439,3.2422,3.2414,3.2407,3.2385,3.2376,3.2478,3.2478,3.2478,0,3.2456,3.2443,3.2474,3.246,3.2461,3.2503,3.2481,3.2486,3.2495,3.2495,3.2516,3.2503,3.2512,3.2485,3.2469,3.2468,3.2463,3.2482,3.2413,3.2406,3.24,3.2379,3.237,3.2475,3.2475,3.2475,3.2476,0,3.2385,3.2375,3.2355,3.2366,3.2364,3.2345,3.2374,3.2369,3.239,3.2407,3.2387,3.24,3.2399,3.2394,3.2414,3.2371,3.2382,3.2407,3.2444,3.2386,3.2367,3.2359,3.247,3.2471,3.2472,3.2473,0,0,3.2274,3.2304,3.2296,3.2303,3.232,3.2313,3.2296,3.2298,3.2294,3.2299,3.2286,3.2276,3.2301,3.2302,3.2323,3.2307,3.2257,3.2335,3.2336,3.2321,3.2212,3.2194,3.2184,3.2274,3.2272,3.2271,3.2212,0,3.2208,3.2183,3.2212,3.218,3.2173,3.2214,3.22,3.2209,3.2224,3.2219,3.2236,3.2229,3.226,3.2262,3.2249,3.2265,3.2235,3.227,3.2263,3.2262,3.226,3.2174,3.2154,3.2097,3.2204,3.2203,3.2202,0,3.2128,3.2132,3.21,3.2122,3.212,3.2107,3.2112,3.2107,3.2118,3.2131,3.2133,3.2159,3.2145,3.218,3.2161,3.2184,3.2183,3.2191,3.2189,3.219,3.2229,3.2174,3.2079,3.2071,3.219,3.2191,3.2192,0,3.2052,3.2049,3.2031,3.2035,3.2059,3.205,3.2059,3.2073,3.2073,3.2076,3.2077,3.2078,3.2079,3.2079,3.2105,3.2128,3.2083,3.212,3.2093,3.2093,3.2082,3.2083,3.1988,3.2079,3.2079,3.2079,3.208,0,3.1977,3.1956,3.1998,3.1987,3.1965,3.1999,3.1976,3.199,3.2002,3.1994,3.2028,3.202,3.2054,3.2049,3.2069,3.2051,3.205,3.206,3.2066,3.2058,3.2057,3.2058,3.2063,3.2077,3.2078,3.2078,3.2079,0,3.1889,3.1916,3.1899,3.1924,3.193,3.1914,3.1935,3.1926,3.1944,3.1934,3.1933,3.1961,3.1957,3.1983,3.1983,3.1997,3.197,3.1982,3.1967,3.1971,3.1943,3.1946,3.1847,3.1836,3.1933,3.1932,3.1931,0,3.184,3.1825,3.185,3.1848,3.1857,3.1852,3.1853,3.1885,3.1885,3.1898,3.1887,3.1887,3.1888,3.188,3.19,3.1901,3.1914,3.1879,3.1915,3.1908,3.1916,3.1917,3.1916,3.1872,3.1871,3.187,3.1869,0,3.175,3.1765,3.1765,3.1771,3.1771,3.1777,3.1784,3.178,3.1816,3.1813,3.1811,3.1812,3.1814,3.1813,3.1819,3.1828,3.1855,3.1858,3.1852,3.1844,3.1837,3.1843,3.1948,3.186,3.1861,3.1862,3.1862,3.1863,3.1681,3.1671,3.1688,3.1688,3.1698,3.1704,3.1698,3.1716,3.1715,3.172,3.1739,3.1734,3.1747,3.1758,3.1765,3.1761,3.1777,3.1768,3.1766,3.1764,3.176,3.1837,3.1761,3.1762,3.1762,3.1762,3.1762,0,3.1595,3.1608,3.1608,3.1619,3.1619,3.1645,3.1656,3.1654,3.1649,3.166,3.1662,3.166,3.166,3.1681,3.1683,3.1676,3.1689,3.1676,3.1678,3.168,3.1744,3.175,3.1666,3.1666,3.1666,3.1666,3.1666,3.1666,3.1551,3.1536,3.1553,3.1543,3.1557,3.1553,3.1557,3.1564,3.1573,3.157,3.1571,3.1585,3.16,3.1604,3.1606,3.1612,3.1612,3.1595,3.1606,3.1665,3.1675,3.1684,3.1689,3.1595,3.1595,3.1542,3.1541,3.1541]}]]